Location: Newark
(45.5167°N, 11.1667°E)
Time: 11:48:56
(UTC+00:00)

Explorer 7 - Pass Details

Date: 18 December 2019
Orbit: 485 x 679 km, 50.3° (Epoch: 23 January)

Event Time Altitude Azimuth Distance (km) Brightness Sun altitude
Rises 12:07:35 0° 226° (SW) 2,875 11.4 19.9°
Reaches altitude 10° 12:09:52 10° 222° (SW) 2,002 11.0 19.8°
Maximum altitude 12:14:22 54° 146° (SE) 794 8.3 19.6°
Drops below altitude 10° 12:19:06 10° 69° (ENE) 2,098 9.5 19.4°
Sets 12:21:32 0° 65° (ENE) 3,027 10.2 19.3°
